{"data":{"norad_id":55271,"intl_designator":"2023-010C","name":"STARLINK-5306","alt_names":[],"object_type":"PAYLOAD","status":"ACTIVE","operator":null,"country":"US","launch_date":"2023-01-19","launch_site_code":"AFWTR","launch_vehicle":null,"mission":null,"orbit_class":"UNKNOWN","rcs_meters":null,"size_class":null,"mass_kg":null,"dimensions":null,"purposes":["comms"],"wikipedia_slug":null,"has_3d_model":false,"image_url":null,"decayed_at":null,"tle_current":{"epoch":"2026-05-25T04:46:52.207104Z","epoch_age_seconds":54498,"freshness":"FRESH","line1":"1 55271U 23010C   26145.19921536  .00000058  00000+0  12637-4 0  9995","line2":"2 55271  69.9990 211.6528 0003636 269.6194  90.4549 14.98332580184247","mean_motion":14.9833258,"eccentricity":0.0003636,"inclination_deg":69.999,"raan_deg":211.6528,"arg_perigee_deg":269.6194,"mean_anomaly_deg":90.4549,"bstar":1.2637e-5,"rev_number":18424,"period_min":96.106833637696,"perigee_km":569.5208252845,"apogee_km":574.57499975288,"semimajor_km":6950.1849125187,"source":"CELESTRAK","updated_at":"2026-05-25T13:38:17.730774Z"}}}